RH
81 82 79 80 78 71 56 54 53 51 53 49 59 60 53 44 36 34 31 26 41 83 84 89 81 59 48 43 58 52 49 53
74 75 81 89 87 82 54 57 55 54 54 55 59 64 66 71 69 60 62 54 53 72 89 88 89 86 75 57 38 45 48 46
69 76 86 90 80 69 74 88 83 74 66 58 78 89 65 77 70 84 81 83 77 76 81 78 78 81 85 87 61 59 63 59
56 39 42 46 78 69 91 89 93 98 98 74 96 98 97 76 64 85 74 72 82 92 88 82 78 78 98 99 90 62 75 89
45 33 30 62 88 77 81 80 76 93 89 95 87 55 43 51 54 70 63 31 48 50 59 47 78 83 76 95 96 78 82 80
39 26 26 34 73 76 79 82 75 87 59 31 33 29 18 15 16 17 15 18 26 22 22 41 61 72 72 77 78 89 86 93
41 24 27 32 61 63 66 68 54 51 35 30 51 60 28 36 24 22 24 31 37 35 34 47 50 60 63 67 72 80 73 68
38 32 38 43 73 52 43 42 34 34 37 25 20 34 32 73 66 50 38 26 36 61 75 74 67 64 75 75 71 73 85 78
42 41 48 42 50 43 36 40 47 49 40 18 19 22 19 23 34 60 64 19 17 12 18 38 60 76 78 88 86 84 92 90
38 36 38 35 41 43 37 43 40 53 57 33 20 19 20 26 47 43 27 44 56 31 20 15 32 59 74 73 76 88 90 93
34 35 29 39 39 40 39 41 39 49 59 50 31 24 23 32 46 40 30 43 50 44 38 37 32 25 44 77 75 74 75 78
33 34 35 36 38 34 40 39 38 43 46 51 48 45 35 30 47 46 45 50 52 54 48 51 53 50 48 43 36 31 39 47
35 34 36 36 38 38 37 40 42 44 43 43 47 49 47 44 45 46 47 49 51 53 54 57 55 53 50 48 48 41 46 45
36 36 35 36 38 36 35 35 38 40 42 43 44 44 48 50 50 48 50 49 50 52 57 57 56 54 53 52 56 53 39 63
38 38 35 34 36 36 34 34 34 36 37 39 44 40 53 55 54 55 54 54 58 58 54 53 56 59 54 54 60 60 56 50
39 40 38 35 34 35 35 33 35 35 32 31 35 42 51 55 56 56 55 52 53 55 58 58 59 58 61 64 62 60 60 62
36 39 40 40 37 35 35 35 34 34 36 35 35 39 43 48 54 57 57 55 54 53 53 44 48 59 65 69 68 67 66 66
32 39 41 41 39 38 36 36 36 39 39 39 40 44 47 49 51 50 52 54 55 53 42 51 50 44 46 47 62 67 65 62
34 37 39 40 44 46 42 38 40 39 40 46 43 47 50 47 46 48 48 48 36 27 26 25 26 34 38 41 47 50 55 57
39 37 36 39 42 43 43 43 41 45 52 56 54 51 51 52 54 50 37 37 33 32 29 33 31 38 50 54 56 59 59 56
Wind_Speed
5 10 14 11 11 11 8 7 6 6 5 3 1 2 6 9 9 10 11 14 10 8 11 11 11 13 13 11 14 16 16 15
4 4 6 10 11 12 10 8 6 6 5 2 0 2 2 5 9 10 11 12 12 11 12 14 12 10 11 12 12 10 14 15
4 5 4 5 3 9 8 7 7 7 6 4 3 3 1 4 8 6 8 9 12 13 14 14 13 11 8 11 14 15 14 16
4 8 8 8 1 5 3 5 2 1 3 5 5 7 6 4 7 7 8 11 16 16 13 15 17 14 10 9 9 8 9 16
9 9 9 4 3 3 7 8 3 6 3 3 7 5 3 4 4 5 10 10 11 12 17 21 24 14 8 13 9 10 15 18
12 8 4 3 7 6 4 6 4 6 6 3 3 3 3 3 4 5 8 8 9 10 11 12 14 21 33 27 27 17 15 21
11 6 4 3 8 11 12 10 10 9 8 6 7 5 4 4 5 6 6 8 9 11 12 11 10 12 12 20 33 31 32 23
11 8 7 6 6 10 10 12 9 9 10 8 7 8 5 7 5 7 9 9 10 13 14 14 14 15 17 17 20 21 23 28
12 8 11 9 12 12 6 10 8 9 10 9 8 8 7 6 7 5 10 9 9 11 14 17 19 20 20 22 22 23 22 25
12 10 13 12 9 12 9 12 8 10 11 11 9 8 7 6 5 7 7 4 9 11 10 12 15 16 19 24 29 27 27 26
13 14 13 13 14 13 13 14 12 10 12 12 11 9 7 5 7 9 7 6 9 12 11 12 14 15 17 20 24 28 28 30
15 16 15 16 14 14 16 16 10 17 15 13 14 10 9 7 5 10 10 6 9 14 15 13 12 14 19 24 23 22 23 26
17 16 17 19 16 17 15 16 15 16 13 16 14 12 12 9 5 7 5 6 9 12 13 15 16 14 19 23 23 20 16 16
19 18 18 20 18 17 16 17 17 21 18 21 23 17 17 12 9 9 8 11 12 11 13 16 17 17 20 23 25 29 17 11
19 20 20 21 24 20 21 22 26 20 21 21 19 23 20 17 15 14 13 12 11 13 16 19 20 19 20 22 27 22 29 31
22 20 22 23 25 27 25 25 24 24 21 25 28 25 19 16 16 16 15 14 14 15 15 17 21 26 24 23 26 29 30 34
19 22 21 24 26 28 31 33 31 28 25 22 21 19 19 15 15 17 22 19 19 22 23 26 27 26 26 26 27 29 30 32
19 23 24 25 27 30 34 34 35 28 27 26 24 22 20 17 17 20 21 21 23 22 25 25 28 32 35 36 33 31 31 31
20 23 27 28 29 32 34 38 34 35 32 29 26 23 21 22 19 20 24 25 25 27 28 30 31 34 36 37 37 37 35 35
20 26 29 30 31 33 34 35 36 30 28 23 23 23 21 22 21 21 22 27 29 28 30 30 30 31 32 32 33 33 32 33
Wind_Direction
38 351 355 356 354 358 357 358 350 342 337 20 49 301 301 301 291 281 270 272 263 165 167 202 233 236 244 256 250 233 226 219
107 54 340 349 337 335 342 348 349 340 331 328 33 259 280 294 284 290 282 277 266 247 211 200 219 251 267 242 243 231 230 222
322 181 244 283 330 309 337 0 7 6 2 351 66 11 321 252 287 277 280 281 279 264 253 249 236 226 251 268 242 246 253 238
326 312 283 298 43 296 248 289 314 17 336 338 65 235 264 260 297 271 270 265 266 263 283 280 261 255 240 255 245 232 222 226
307 317 326 99 236 274 284 297 341 326 304 141 242 273 281 249 283 259 265 286 280 285 265 275 258 235 279 274 243 212 218 230
294 305 287 230 151 172 224 198 213 212 239 213 282 291 275 261 287 275 290 293 289 300 307 320 318 277 252 271 277 261 259 243
277 284 277 257 206 220 221 224 227 228 238 244 225 253 262 275 276 268 264 278 273 274 286 296 304 305 277 250 265 264 263 269
261 261 264 251 219 251 244 238 232 221 233 246 229 241 241 243 260 279 297 289 282 283 284 287 287 283 286 278 275 277 262 253
244 239 252 240 240 247 246 251 226 238 242 230 229 242 247 242 251 229 262 290 284 277 278 278 276 269 271 267 265 270 267 266
233 216 236 240 229 241 234 252 239 238 251 252 234 234 242 249 264 273 294 302 303 307 299 286 284 283 274 270 265 264 266 265
232 234 231 242 227 235 223 227 236 233 234 255 245 238 241 227 261 277 306 317 317 315 313 317 306 294 286 280 274 278 272 267
237 241 243 235 228 226 235 248 215 226 240 233 247 237 242 232 237 295 317 326 308 309 322 323 321 318 309 304 303 286 280 272
245 243 243 242 238 237 240 238 236 240 236 236 246 233 259 258 211 245 277 293 290 312 311 307 309 313 311 309 309 314 292 283
257 252 249 249 248 248 248 254 256 252 242 246 241 248 239 245 261 258 261 263 277 288 304 304 310 313 307 313 319 314 313 279
256 258 252 252 256 249 255 251 244 238 238 236 249 264 242 240 246 257 260 270 280 279 279 287 298 295 297 305 309 304 311 301
265 262 254 253 255 258 253 252 253 254 258 260 258 257 245 239 248 258 265 265 270 282 289 283 285 296 296 291 290 295 302 305
277 272 260 254 250 258 256 253 246 246 243 255 254 235 229 240 258 264 263 257 256 261 267 280 281 283 286 288 286 286 288 293
290 278 276 270 268 257 256 256 255 249 254 251 247 247 245 246 239 249 248 253 265 264 276 272 276 278 275 275 277 281 284 286
302 286 282 275 271 270 262 258 257 257 252 256 256 246 241 237 246 261 265 268 279 287 289 288 284 278 276 276 274 272 272 273
311 293 287 286 281 274 266 260 254 255 256 252 241 236 238 275 285 266 280 300 298 296 296 291 287 280 277 275 275 274 273 271